[[{"header":{"parameterUnit":"m.s-1","parameterCategory":2,"la1":30.2991,"la2":30.254,"lo1":-89.0895,"lo2":-89.0444,"dy":0.0017,"dx":0.0017,"nx":28,"ny":28,"refTime":"2025-08-04T21:00:00:Z","depth":"0","parameterNumber":2,"parameterNumberName":"U-component_of_CURRENTS"},"data":[0,0,0,0,0,0,0,0,0,0,0,0,0,0,0,0,0,0,0,0,0,0,0,0,0,0,0,0,0,0,0,0,0,0,0,0,0,0,0,0,0,0,0,0,0,0,0,0,0,0,0,0,0,0,0,0,0,0,0.2507,0.2507,0,0.2484,0.2484,0.2483,0.2451,0.2451,0.2451,0.245,0.2427,0.2426,0.2426,0,0,0,0,0,0,0,0,0,0,0,0,0,0.257,0.2568,0.2507,0.2507,0.2507,0.2484,0.2484,0.2483,0.2451,0.2451,0.245,0.245,0.2427,0.2426,0.2426,0,0,0,0,0,0,0,0,0,0,0,0,0,0.2542,0.2568,0.2507,0.2489,0.2488,0.2484,0.2484,0.2483,0.2451,0.2451,0.245,0.245,0.2427,0.2426,0.2426,0.2435,0,0,0.2425,0.2425,0,0,0,0,0,0,0,0,0.2544,0.254,0.2492,0.2491,0.2489,0.2471,0.2497,0.2468,0.2452,0.2463,0.245,0.2449,0.2443,0.2441,0.2436,0.2434,0.2433,0.2425,0.2424,0.2424,0.2424,0,0,0,0,0,0,0,0.2546,0.2541,0.2496,0.2492,0.249,0.2499,0.2493,0.2491,0.2456,0.2462,0.246,0.2461,0.2442,0.2436,0.2435,0.2433,0.2425,0.2424,0.2424,0.2424,0.2469,0.247,0,0,0,0,0,0,0.255,0.2542,0.2497,0.2496,0.2517,0.2498,0.2492,0.2476,0.2455,0.2452,0.2461,0.2459,0.2437,0.2436,0.2434,0.247,0.2424,0.2424,0.2424,0.2467,0.2469,0.2471,0,0,0,0,0,0,0.2551,0.2545,0.2498,0.2521,0.2516,0.2497,0.248,0.2476,0.2474,0.2455,0.2451,0.2464,0.2437,0.2435,0.2442,0.2467,0.2424,0.2423,0.2466,0.2468,0.247,0.2524,0,0,0,0,0,0,0.2553,0.2546,0.254,0.2521,0.2515,0.2505,0.248,0.2476,0.2476,0.2473,0.2456,0.2453,0.2436,0.2443,0.2442,0.2466,0.2423,0.2464,0.2467,0.2469,0.252,0.2528,0.2534,0,0,0,0,0,0.2555,0.255,0.254,0.2535,0.2506,0.2506,0.2505,0.2489,0.2477,0.2483,0.2472,0.2453,0.2459,0.2444,0.2442,0.2467,0.2462,0.2466,0.2469,0.2517,0.2526,0.2534,0,0,0,0,0,0,0.2573,0.2546,0.2534,0.252,0.2519,0.2502,0.2507,0.2496,0.2491,0.2489,0.2467,0.2464,0.2482,0.2469,0.2453,0.2489,0.246,0.2463,0.2498,0.2506,0.2513,0.253,0.2423,0,0,0,0,0,0.2575,0.2564,0.2548,0.2539,0.254,0.2526,0.2525,0.2516,0.2508,0.2505,0.2492,0.2487,0.2495,0.2495,0.2496,0.2512,0.2542,0.253,0.2537,0.2542,0.2557,0.2626,0.2641,0.2481,0.2481,0.2481,0,0,0.2578,0.2565,0.2557,0.2544,0.2539,0.2548,0.2523,0.2528,0.2537,0.2505,0.2513,0.251,0.2506,0.2525,0.2533,0.2516,0.2607,0.2546,0.2551,0.2563,0.2631,0.2647,0.2661,0.2483,0.2483,0.2483,0,0,0.2592,0.2571,0.2573,0.2576,0.2576,0.2571,0.2576,0.2565,0.2562,0.2573,0.2558,0.2574,0.257,0.2579,0.2582,0.2629,0.2642,0.2628,0.2673,0.274,0.2754,0.2767,0.284,0.2859,0.2629,0.2629,0.2629,0,0.2601,0.2593,0.2578,0.259,0.2596,0.2584,0.2599,0.2599,0.2593,0.2605,0.2584,0.2613,0.2601,0.2644,0.2656,0.2646,0.2689,0.2639,0.275,0.2763,0.2775,0.2848,0.2868,0.2632,0.2631,0.2631,0.2631,0,0.2619,0.2618,0.2625,0.263,0.2639,0.2651,0.2652,0.2664,0.266,0.2663,0.27,0.2692,0.2714,0.2712,0.2695,0.2773,0.278,0.2753,0.273,0.2795,0.2867,0.2887,0.2636,0.2635,0.2634,0.2633,0,0,0.2618,0.2633,0.2635,0.2643,0.2661,0.2665,0.2698,0.2723,0.2753,0.2755,0.2805,0.281,0.2814,0.2819,0.2808,0.2855,0.297,0.2842,0.2844,0.2917,0.3139,0.3068,0.3083,0.2967,0.297,0.2973,0.3161,0,0.2637,0.2661,0.2667,0.2693,0.2705,0.2718,0.2748,0.2774,0.2797,0.2845,0.286,0.2899,0.2852,0.2873,0.2916,0.2966,0.3023,0.2923,0.3064,0.3069,0.2999,0.3103,0.2894,0.3037,0.3181,0.3184,0.3186,0,0.2651,0.2665,0.269,0.272,0.2727,0.2744,0.2797,0.2825,0.2897,0.2922,0.2975,0.2994,0.3074,0.3015,0.3149,0.3092,0.3124,0.315,0.3158,0.3086,0.3034,0.2992,0.3067,0.2967,0.3217,0.3214,0.3212,0,0.2647,0.2679,0.2696,0.2705,0.2741,0.2759,0.2784,0.2847,0.2891,0.2985,0.3048,0.3123,0.3193,0.3245,0.3293,0.3242,0.3444,0.3379,0.3348,0.3344,0.3189,0.3165,0.318,0.3476,0.3475,0.3475,0.3474,0,0.2657,0.267,0.2691,0.2697,0.2725,0.2756,0.2808,0.2849,0.2944,0.3025,0.3086,0.318,0.3258,0.3366,0.3373,0.3443,0.3517,0.3392,0.3397,0.3202,0.3178,0.3099,0.3054,0.3482,0.348,0.3479,0.3478,0,0.2647,0.2662,0.2678,0.2709,0.2717,0.2737,0.2806,0.286,0.2953,0.3075,0.3118,0.3278,0.3418,0.3483,0.3606,0.3561,0.35,0.3608,0.3378,0.3351,0.3175,0.314,0.3099,0.3006,0.3611,0.3611,0.361,0,0.2647,0.2651,0.2671,0.2679,0.2688,0.2724,0.2761,0.2846,0.2915,0.3128,0.3194,0.3383,0.3471,0.3633,0.3596,0.3623,0.351,0.3453,0.3292,0.317,0.3138,0.3025,0.2942,0.3128,0.3124,0.312,0.3117,0,0.2647,0.2646,0.2657,0.2671,0.2694,0.2725,0.2784,0.2834,0.297,0.3082,0.3243,0.3334,0.3472,0.3415,0.3458,0.3431,0.3245,0.338,0.3312,0.282,0.2642,0.2551,0.3019,0.3086,0.3089,0.3091,0.3093,0.3094,0.2646,0.2647,0.266,0.2664,0.2689,0.2716,0.2718,0.2807,0.2901,0.3023,0.3176,0.3226,0.3241,0.3246,0.322,0.301,0.3038,0.286,0.2856,0.2777,0.2584,0.2991,0.3014,0.3017,0.3019,0.3021,0.3023,0,0.2646,0.2646,0.2655,0.2652,0.2649,0.2678,0.2726,0.2714,0.2777,0.289,0.2972,0.2922,0.2847,0.2818,0.2637,0.2494,0.2364,0.2419,0.2199,0.2164,0.2576,0.2447,0.2274,0.2274,0.2274,0.2274,0.2274,0.2274,0.2654,0.2647,0.2637,0.2608,0.26,0.2557,0.2557,0.2556,0.2582,0.2555,0.2494,0.2511,0.2505,0.24,0.2187,0.2115,0.1955,0.1829,0.1903,0.2164,0.2203,0.2241,0.2108,0.1867,0.1867,0.1338,0.1334,0.1331]},{"header":{"parameterUnit":"m.s-1","parameterCategory":2,"la1":30.2991,"la2":30.254,"lo1":-89.0895,"lo2":-89.0444,"dy":0.0017,"dx":0.0017,"nx":28,"ny":28,"refTime":"2025-08-04T21:00:00:Z","depth":"0","parameterNumber":3,"parameterNumberName":"V-component_of_CURRENTS"},"data":[0,0,0,0,0,0,0,0,0,0,0,0,0,0,0,0,0,0,0,0,0,0,0,0,0,0,0,0,0,0,0,0,0,0,0,0,0,0,0,0,0,0,0,0,0,0,0,0,0,0,0,0,0,0,0,0,0,0,0.0202,0.0202,0,0.0184,0.0183,0.0183,0.0166,0.0166,0.0165,0.0165,0.0136,0.0135,0.0134,0,0,0,0,0,0,0,0,0,0,0,0,0,0.0187,0.0187,0.0202,0.0202,0.0202,0.0184,0.0183,0.0183,0.0166,0.0166,0.0165,0.0165,0.0136,0.0135,0.0134,0,0,0,0,0,0,0,0,0,0,0,0,0,0.0182,0.0187,0.0202,0.0192,0.0191,0.0184,0.0183,0.0183,0.0166,0.0166,0.0165,0.0165,0.0136,0.0135,0.0134,0.0132,0,0,0.0131,0.0131,0,0,0,0,0,0,0,0,0.0183,0.0183,0.0193,0.0192,0.0191,0.0178,0.0167,0.0166,0.0166,0.0174,0.0165,0.0165,0.015,0.0147,0.0143,0.013,0.0129,0.0131,0.013,0.013,0.013,0,0,0,0,0,0,0,0.0183,0.0183,0.0194,0.0193,0.0192,0.0176,0.0175,0.0167,0.0162,0.0173,0.0172,0.0172,0.0149,0.0144,0.0142,0.0129,0.0131,0.013,0.013,0.0129,0.0114,0.0115,0,0,0,0,0,0,0.019,0.0184,0.0194,0.0193,0.0188,0.0177,0.0176,0.0181,0.0162,0.016,0.0172,0.0171,0.0146,0.0143,0.0141,0.0149,0.013,0.0129,0.0128,0.0114,0.0114,0.0115,0,0,0,0,0,0,0.019,0.0191,0.0195,0.0188,0.0188,0.0177,0.0183,0.0181,0.0178,0.0162,0.0159,0.0172,0.0146,0.0143,0.0137,0.0147,0.0129,0.0128,0.0114,0.0114,0.0114,0.0157,0,0,0,0,0,0,0.0189,0.0191,0.0194,0.0189,0.0189,0.0198,0.0184,0.0181,0.0178,0.0177,0.016,0.0157,0.0145,0.0139,0.0136,0.0146,0.0127,0.0114,0.0114,0.0114,0.0155,0.0159,0.0162,0,0,0,0,0,0.0189,0.0198,0.0194,0.0195,0.0194,0.0199,0.0197,0.0188,0.0179,0.0183,0.0169,0.0158,0.0139,0.0138,0.0135,0.0144,0.0113,0.0114,0.0114,0.0154,0.0158,0.0162,0,0,0,0,0,0,0.0188,0.0197,0.0193,0.0202,0.0203,0.0197,0.0198,0.0191,0.0183,0.0179,0.0161,0.0158,0.0156,0.0143,0.0143,0.014,0.0124,0.0124,0.0155,0.0159,0.0162,0.0181,0.0126,0,0,0,0,0,0.0191,0.0203,0.0204,0.0211,0.0214,0.0206,0.0204,0.0199,0.0193,0.0189,0.0177,0.0164,0.0155,0.0152,0.014,0.0142,0.0139,0.0144,0.0148,0.015,0.0163,0.0162,0.0167,0.0116,0.0116,0.0116,0,0,0.0191,0.0198,0.0203,0.0212,0.0211,0.0226,0.0205,0.0208,0.0219,0.0187,0.0194,0.0174,0.0156,0.0157,0.0155,0.0149,0.0164,0.0151,0.0154,0.0165,0.0164,0.0169,0.0173,0.0116,0.0116,0.0116,0,0,0.0208,0.0207,0.0226,0.0233,0.0238,0.0237,0.0241,0.0238,0.0234,0.0235,0.0215,0.0202,0.0189,0.0181,0.0174,0.0188,0.0178,0.0181,0.0217,0.0216,0.0221,0.0225,0.0232,0.0236,0.0186,0.0186,0.0186,0,0.0207,0.0235,0.023,0.0253,0.0265,0.0248,0.0273,0.0267,0.0261,0.0266,0.0244,0.0229,0.0204,0.0214,0.0212,0.0197,0.0198,0.0205,0.0222,0.0226,0.0229,0.0235,0.024,0.0188,0.0188,0.0188,0.0187,0,0.0244,0.0264,0.0277,0.0305,0.0314,0.0332,0.0331,0.0332,0.0321,0.0318,0.0319,0.0283,0.0277,0.0261,0.0238,0.0252,0.0246,0.0224,0.0216,0.0237,0.0242,0.0246,0.0191,0.019,0.019,0.0189,0,0,0.0253,0.0296,0.0301,0.0329,0.0346,0.0363,0.0378,0.0396,0.0421,0.0392,0.0422,0.0378,0.0356,0.0347,0.0314,0.0307,0.0318,0.0278,0.0277,0.0293,0.0328,0.0321,0.0324,0.0301,0.0302,0.0302,0.0324,0,0.0287,0.0347,0.0355,0.041,0.0445,0.0438,0.0463,0.0472,0.0471,0.0494,0.0452,0.0467,0.0391,0.0395,0.0369,0.034,0.0329,0.0315,0.0299,0.0299,0.0296,0.0328,0.0325,0.0344,0.0327,0.0328,0.0328,0,0.0327,0.0366,0.0428,0.0485,0.0499,0.0523,0.0569,0.059,0.0605,0.0606,0.0596,0.0571,0.0555,0.0489,0.044,0.0437,0.0383,0.0351,0.0351,0.0335,0.0299,0.0318,0.0351,0.0246,0.0333,0.0333,0.0333,0,0.0358,0.0419,0.0475,0.0493,0.0548,0.057,0.0598,0.0625,0.0669,0.0689,0.073,0.0682,0.07,0.0611,0.0527,0.0488,0.0488,0.0425,0.0369,0.0368,0.0358,0.0355,0.0295,0.0391,0.0391,0.0391,0.0391,0,0.0402,0.0446,0.0495,0.0527,0.0601,0.0619,0.0697,0.0713,0.0768,0.0855,0.0796,0.0865,0.0735,0.0713,0.0587,0.0508,0.0531,0.0391,0.0377,0.0372,0.0371,0.0271,0.0207,0.0391,0.0391,0.0391,0.0391,0,0.0435,0.0463,0.0534,0.0596,0.062,0.0675,0.0769,0.0834,0.0874,0.0989,0.101,0.1025,0.1006,0.0872,0.077,0.0625,0.0464,0.0488,0.0496,0.0482,0.0293,0.0231,0.0169,0.0116,0.0414,0.0414,0.0414,0,0.0461,0.0501,0.0585,0.0635,0.0666,0.075,0.0818,0.0878,0.0962,0.1105,0.1176,0.1205,0.125,0.1093,0.0856,0.0654,0.0519,0.0499,0.0404,0.03,0.0221,0.0173,0.0128,0.041,0.041,0.041,0.041,0,0.0514,0.0538,0.0597,0.0698,0.0773,0.0874,0.0977,0.1059,0.1166,0.129,0.1449,0.1505,0.1375,0.1193,0.0915,0.0752,0.0417,0.0491,0.0382,0.0219,0.0165,0.0103,0.0382,0.041,0.041,0.041,0.041,0.041,0.0551,0.06,0.0673,0.0769,0.0863,0.0987,0.1082,0.1223,0.1393,0.1605,0.1647,0.1773,0.1479,0.1108,0.0878,0.0441,0.0435,0.0285,0.0224,0.0188,0.012,0.0405,0.0413,0.0413,0.0413,0.0413,0.0413,0,0.0599,0.0652,0.0743,0.0859,0.0967,0.1009,0.1184,0.1306,0.1529,0.1749,0.1907,0.1824,0.1484,0.1082,0.0493,0.0215,0.0097,0.007,-0.001,-0.0042,0.0215,0.0196,0.016,0.016,0.016,0.016,0.016,0.016,0.0627,0.0708,0.0751,0.092,0.1009,0.1165,0.1268,0.147,0.165,0.1913,0.2002,0.2041,0.1691,0.0734,0.0115,-0.0014,-0.0202,-0.024,-0.0323,-0.0166,-0.0151,-0.0137,-0.0171,-0.0283,-0.0284,-0.0558,-0.0561,-0.0563]}],[{"header":{"parameterUnit":"m.s-1","parameterCategory":2,"la1":30.2991,"la2":30.254,"lo1":-89.0895,"lo2":-89.0444,"dy":0.0017,"dx":0.0017,"nx":28,"ny":28,"refTime":"2025-08-04T21:00:00:Z","depth":"2","parameterNumber":2,"parameterNumberName":"U-component_of_CURRENTS"},"data":[0,0,0,0,0,0,0,0,0,0,0,0,0,0,0,0,0,0,0,0,0,0,0,0,0,0,0,0,0,0,0,0,0,0,0,0,0,0,0,0,0,0,0,0,0,0,0,0,0,0,0,0,0,0,0,0,0,0,0.2176,0.2176,0,0.2176,0.2176,0.2176,0.2166,0.2166,0.2166,0.2166,0.2161,0.2161,0.2161,0,0,0,0,0,0,0,0,0,0,0,0,0,0.2197,0.2197,0.2176,0.2176,0.2176,0.2176,0.2176,0.2176,0.2166,0.2166,0.2166,0.2166,0.2161,0.2161,0.2161,0,0,0,0,0,0,0,0,0,0,0,0,0,0.219,0.2196,0.2176,0.2173,0.2173,0.2176,0.2176,0.2176,0.2166,0.2166,0.2166,0.2166,0.2161,0.2161,0.2161,0.2164,0,0,0.2161,0.2161,0,0,0,0,0,0,0,0,0.2191,0.2189,0.2173,0.2173,0.2173,0.2172,0.2182,0.2172,0.2166,0.2167,0.2166,0.2166,0.2166,0.2165,0.2163,0.2164,0.2164,0.2161,0.2161,0.2161,0.2161,0,0,0,0,0,0,0,0.2191,0.2189,0.2174,0.2173,0.2173,0.2182,0.218,0.218,0.2166,0.2167,0.2167,0.2169,0.2165,0.2163,0.2163,0.2164,0.2161,0.2161,0.2161,0.2161,0.2209,0.221,0,0,0,0,0,0,0.2193,0.219,0.2175,0.2175,0.2183,0.2181,0.2179,0.2171,0.2166,0.2166,0.2169,0.2169,0.2164,0.2163,0.2163,0.2202,0.2161,0.2161,0.2161,0.2208,0.2209,0.2211,0,0,0,0,0,0,0.2193,0.2191,0.2175,0.2184,0.2183,0.2181,0.2172,0.2172,0.2179,0.2168,0.2167,0.2179,0.2163,0.2163,0.2177,0.2201,0.2161,0.2161,0.2206,0.2208,0.221,0.2258,0,0,0,0,0,0,0.2193,0.2191,0.2191,0.2184,0.2182,0.2186,0.2173,0.2172,0.2181,0.218,0.2176,0.2175,0.2163,0.2177,0.2177,0.22,0.2161,0.2204,0.2207,0.2209,0.2255,0.2261,0.2267,0,0,0,0,0,0.2194,0.2194,0.2191,0.219,0.2181,0.2187,0.2188,0.2185,0.2182,0.219,0.2189,0.2175,0.2192,0.2178,0.2177,0.2201,0.2203,0.2206,0.2209,0.2252,0.226,0.2267,0,0,0,0,0,0,0.2203,0.2193,0.2189,0.2186,0.2192,0.2187,0.2195,0.2193,0.2198,0.2201,0.2187,0.2187,0.221,0.22,0.2184,0.2224,0.2197,0.22,0.223,0.2238,0.2244,0.2254,0.2161,0,0,0,0,0,0.2205,0.2203,0.2199,0.2199,0.2203,0.2202,0.2206,0.2206,0.2208,0.221,0.2207,0.221,0.222,0.2224,0.2228,0.2246,0.2259,0.2263,0.227,0.2275,0.2284,0.2332,0.2343,0.222,0.222,0.222,0,0,0.2208,0.2204,0.2202,0.2202,0.2205,0.2216,0.2204,0.2216,0.2229,0.2209,0.2227,0.2231,0.2231,0.2253,0.2263,0.2248,0.2317,0.2278,0.2283,0.2289,0.2336,0.2348,0.2359,0.2222,0.2222,0.2221,0,0,0.2216,0.2211,0.2214,0.2223,0.2234,0.2235,0.2242,0.2246,0.2252,0.227,0.2265,0.2285,0.2291,0.2301,0.2305,0.2349,0.2349,0.2351,0.2388,0.2434,0.2445,0.2454,0.2489,0.2501,0.2352,0.2352,0.2352,0,0.2223,0.2221,0.222,0.2232,0.2241,0.2246,0.226,0.2269,0.2278,0.2295,0.2284,0.2322,0.2317,0.2356,0.2369,0.2363,0.2387,0.2358,0.2443,0.2452,0.2461,0.2494,0.2507,0.2355,0.2355,0.2354,0.2354,0,0.2233,0.2239,0.2247,0.2259,0.2272,0.2286,0.23,0.2319,0.2328,0.2341,0.2384,0.2385,0.2411,0.2414,0.2402,0.2465,0.2461,0.2446,0.2424,0.2477,0.2508,0.252,0.2359,0.2358,0.2357,0.2356,0,0,0.2226,0.2248,0.2251,0.2261,0.2287,0.2296,0.2331,0.2363,0.2393,0.2413,0.2457,0.2478,0.2491,0.2497,0.2494,0.2527,0.2604,0.2516,0.2517,0.255,0.2709,0.2629,0.2635,0.2609,0.2612,0.2614,0.2706,0,0.2235,0.2254,0.2268,0.2294,0.2304,0.233,0.2362,0.2397,0.2428,0.2474,0.2501,0.2538,0.252,0.2538,0.2575,0.26,0.264,0.258,0.2654,0.2656,0.2578,0.2647,0.2408,0.2464,0.2719,0.2721,0.2722,0,0.2236,0.225,0.2272,0.2307,0.2316,0.2338,0.2394,0.2426,0.2498,0.2527,0.2583,0.2605,0.2667,0.2636,0.2725,0.2692,0.271,0.2722,0.2726,0.2643,0.2599,0.2452,0.2477,0.2743,0.2741,0.274,0.2738,0,0.2216,0.2251,0.2267,0.2278,0.2322,0.2346,0.2378,0.2445,0.2484,0.2569,0.2616,0.2686,0.2731,0.2775,0.2804,0.2778,0.2895,0.2859,0.2806,0.2801,0.2605,0.2578,0.2927,0.2927,0.2927,0.2927,0.2926,0,0.2209,0.2222,0.2259,0.2265,0.2296,0.2338,0.2389,0.2434,0.2517,0.2572,0.2645,0.2697,0.2771,0.2838,0.2849,0.2874,0.2939,0.2832,0.2827,0.2614,0.2588,0.283,0.2818,0.293,0.2929,0.2929,0.2928,0,0.2178,0.2203,0.2222,0.2268,0.2284,0.2308,0.2382,0.2422,0.2513,0.259,0.2623,0.2737,0.2821,0.2884,0.296,0.2927,0.2954,0.2941,0.2682,0.2644,0.2817,0.2806,0.2898,0.2896,0.2895,0.2893,0.2892,0,0.2161,0.2168,0.2211,0.2221,0.224,0.2285,0.2316,0.2404,0.2444,0.2596,0.2623,0.2751,0.28,0.2896,0.2869,0.2889,0.2949,0.2665,0.2562,0.2832,0.2819,0.281,0.2801,0.2327,0.2322,0.2317,0.2314,0,0.2129,0.2147,0.216,0.218,0.2205,0.2232,0.2279,0.2311,0.2419,0.2484,0.2565,0.2626,0.2726,0.2632,0.2669,0.2639,0.264,0.257,0.2942,0.2366,0.2299,0.2284,0.2294,0.2272,0.2276,0.2279,0.2282,0.2283,0.2102,0.21,0.2116,0.2124,0.2148,0.2151,0.2144,0.2195,0.2234,0.2292,0.242,0.243,0.2464,0.2393,0.2319,0.2255,0.2438,0.2307,0.2319,0.2337,0.2248,0.2182,0.2116,0.2119,0.2122,0.2124,0.2126,0,0.2047,0.205,0.2057,0.2046,0.2027,0.2076,0.2089,0.2045,0.2031,0.2121,0.216,0.2004,0.1953,0.1994,0.1829,0.1817,0.1778,0.1736,0.1661,0.1704,0.1742,0.162,0.1323,0.1321,0.1318,0.1316,0,0,0.2019,0.199,0.1981,0.1915,0.1917,0.1845,0.1833,0.1784,0.179,0.1746,0.1738,0.1897,0.1954,0.1633,0.1575,0.1421,0.1552,0.1358,0.2006,0.1963,0.1998,0.2079,0.1941,0,0,0,0,0]},{"header":{"parameterUnit":"m.s-1","parameterCategory":2,"la1":30.2991,"la2":30.254,"lo1":-89.0895,"lo2":-89.0444,"dy":0.0017,"dx":0.0017,"nx":28,"ny":28,"refTime":"2025-08-04T21:00:00:Z","depth":"2","parameterNumber":3,"parameterNumberName":"V-component_of_CURRENTS"},"data":[0,0,0,0,0,0,0,0,0,0,0,0,0,0,0,0,0,0,0,0,0,0,0,0,0,0,0,0,0,0,0,0,0,0,0,0,0,0,0,0,0,0,0,0,0,0,0,0,0,0,0,0,0,0,0,0,0,0,0.0182,0.0181,0,0.0164,0.0164,0.0164,0.0147,0.0147,0.0147,0.0146,0.0121,0.012,0.012,0,0,0,0,0,0,0,0,0,0,0,0,0,0.017,0.017,0.0182,0.0181,0.0181,0.0164,0.0164,0.0164,0.0147,0.0147,0.0146,0.0146,0.0121,0.012,0.012,0,0,0,0,0,0,0,0,0,0,0,0,0,0.0165,0.017,0.0182,0.0171,0.017,0.0164,0.0164,0.0163,0.0147,0.0147,0.0146,0.0146,0.0121,0.012,0.012,0.0119,0,0,0.0117,0.0117,0,0,0,0,0,0,0,0,0.0166,0.0166,0.0173,0.0172,0.0171,0.0158,0.015,0.0149,0.0147,0.0155,0.0146,0.0146,0.0133,0.0131,0.0128,0.0118,0.0117,0.0117,0.0117,0.0116,0.0116,0,0,0,0,0,0,0,0.0166,0.0166,0.0174,0.0173,0.0171,0.0157,0.0156,0.015,0.0145,0.0154,0.0153,0.0152,0.0132,0.0129,0.0127,0.0117,0.0117,0.0116,0.0116,0.0116,0.0109,0.0109,0,0,0,0,0,0,0.0171,0.0167,0.0175,0.0174,0.0168,0.0158,0.0157,0.0162,0.0145,0.0143,0.0153,0.0152,0.013,0.0128,0.0126,0.0135,0.0116,0.0115,0.0115,0.0108,0.0109,0.0109,0,0,0,0,0,0,0.0171,0.0173,0.0175,0.017,0.0169,0.0158,0.0164,0.0162,0.0159,0.0144,0.0141,0.0152,0.013,0.0127,0.0124,0.0134,0.0115,0.0114,0.0108,0.0108,0.0109,0.0147,0,0,0,0,0,0,0.0171,0.0173,0.0175,0.017,0.017,0.0179,0.0164,0.0161,0.0159,0.0157,0.0143,0.014,0.0129,0.0126,0.0123,0.0132,0.0114,0.0108,0.0108,0.0109,0.0146,0.0149,0.0152,0,0,0,0,0,0.0171,0.018,0.0176,0.0176,0.0175,0.0179,0.0178,0.0168,0.0159,0.0163,0.0151,0.014,0.0127,0.0125,0.0123,0.0132,0.0107,0.0108,0.0109,0.0144,0.0148,0.0152,0,0,0,0,0,0,0.0171,0.0179,0.0174,0.0183,0.0183,0.0177,0.0178,0.0171,0.0164,0.0161,0.0145,0.0142,0.0142,0.0131,0.0129,0.013,0.0115,0.0115,0.0143,0.0147,0.015,0.0165,0.0113,0,0,0,0,0,0.0174,0.0186,0.0185,0.0192,0.0194,0.0186,0.0184,0.0179,0.0174,0.017,0.016,0.0149,0.0142,0.014,0.0132,0.0135,0.012,0.0138,0.0141,0.0144,0.0154,0.0138,0.014,0.0111,0.0111,0.0111,0,0,0.0175,0.0181,0.0186,0.0193,0.0191,0.0206,0.0184,0.0188,0.0198,0.0169,0.0177,0.0159,0.0145,0.0147,0.0146,0.014,0.0143,0.0144,0.0147,0.0156,0.0139,0.0142,0.0144,0.0112,0.0112,0.0111,0,0,0.019,0.019,0.0207,0.0213,0.0217,0.0216,0.022,0.0216,0.0213,0.0216,0.0197,0.0187,0.0178,0.0171,0.0165,0.018,0.0158,0.0175,0.0206,0.0191,0.0193,0.0195,0.0176,0.0176,0.0179,0.0179,0.0179,0,0.019,0.0216,0.0211,0.0231,0.0242,0.0226,0.0249,0.0245,0.0239,0.0242,0.0224,0.021,0.0191,0.0199,0.0201,0.0189,0.0174,0.0194,0.0195,0.0197,0.0198,0.0178,0.0178,0.0181,0.0181,0.0181,0.0181,0,0.0224,0.0243,0.0254,0.028,0.0288,0.0304,0.0303,0.0305,0.0294,0.0291,0.0289,0.026,0.0254,0.0242,0.0225,0.023,0.0214,0.0199,0.0188,0.0204,0.0181,0.018,0.0184,0.0183,0.0183,0.0182,0,0,0.0232,0.0272,0.0276,0.0301,0.0318,0.0331,0.0346,0.0361,0.0379,0.0355,0.0374,0.0344,0.0323,0.0315,0.0288,0.0272,0.0259,0.0242,0.0241,0.0227,0.0222,0.0194,0.019,0.0243,0.0243,0.0243,0.0201,0,0.0262,0.0317,0.0325,0.0374,0.0405,0.0399,0.0422,0.0429,0.0424,0.0436,0.0399,0.0404,0.0353,0.0351,0.0324,0.0282,0.0258,0.0271,0.0206,0.0204,0.018,0.0189,0.0208,0.0171,0.02,0.0199,0.0199,0,0.0298,0.0334,0.039,0.0439,0.0451,0.0473,0.0508,0.0528,0.0532,0.0528,0.0515,0.0485,0.0461,0.0412,0.0342,0.0353,0.0291,0.0249,0.0246,0.0209,0.0175,0.016,0.0168,0.0197,0.0197,0.0197,0.0197,0,0.0325,0.0379,0.0429,0.0446,0.0494,0.0513,0.0538,0.0556,0.059,0.059,0.0612,0.0563,0.0554,0.0471,0.037,0.0359,0.029,0.0262,0.0177,0.0174,0.0173,0.017,0.0208,0.0208,0.0208,0.0208,0.0208,0,0.0364,0.0402,0.0446,0.0475,0.0538,0.0555,0.0619,0.0629,0.0666,0.0725,0.0666,0.0691,0.0569,0.051,0.0402,0.029,0.031,0.0187,0.0164,0.0185,0.0184,0.0193,0.0192,0.0207,0.0207,0.0207,0.0208,0,0.039,0.0417,0.0479,0.0534,0.0554,0.0601,0.068,0.0732,0.0754,0.0826,0.0832,0.0795,0.0721,0.0587,0.0458,0.0344,0.023,0.018,0.021,0.0191,0.0115,0.0116,0.0086,0.0085,0.0084,0.0083,0.0082,0,0.0412,0.0446,0.052,0.0564,0.0591,0.0663,0.0724,0.077,0.0835,0.0897,0.094,0.0887,0.0866,0.0657,0.0453,0.0261,0.0229,0.0133,0.0108,0.0123,0.0104,0.0107,0.011,0.012,0.012,0.0119,0.0119,0,0.0452,0.0473,0.0524,0.0614,0.068,0.0769,0.0855,0.092,0.0993,0.1051,0.1111,0.1097,0.0909,0.0717,0.0441,0.0304,0.0163,0.0119,0.0139,0.0145,0.0151,0.0133,0.0136,0.0116,0.0117,0.0117,0.0117,0.0117,0.0477,0.0517,0.0583,0.0668,0.0752,0.0863,0.0946,0.1044,0.1153,0.1248,0.1228,0.1208,0.0987,0.0639,0.0404,0.0148,0.016,0.0058,0.0061,0.0064,0.0072,0.0076,0.0028,0.0028,0.0028,0.0028,0.0028,0,0.0511,0.0558,0.0636,0.074,0.0837,0.088,0.1029,0.1114,0.1246,0.1318,0.1358,0.1142,0.093,0.0673,0.0304,0.0079,0.0066,-0.0004,0.0036,0.004,0.0044,0.0053,0.0002,0.0002,0.0001,0.0,0,0,0.053,0.06,0.0638,0.0788,0.0871,0.1008,0.1099,0.1223,0.1303,0.1366,0.1354,0.1316,0.1009,0.0732,0.0434,0.0222,0.0179,0.0172,0.0217,0.0305,0.0311,0.0103,0.0125,0,0,0,0,0]}],[{"header":{"parameterUnit":"m.s-1","parameterCategory":2,"la1":30.2991,"la2":30.254,"lo1":-89.0895,"lo2":-89.0444,"dy":0.0017,"dx":0.0017,"nx":28,"ny":28,"refTime":"2025-08-04T21:00:00:Z","depth":"4","parameterNumber":2,"parameterNumberName":"U-component_of_CURRENTS"},"data":[0,0,0,0,0,0,0,0,0,0,0,0,0,0,0,0,0,0,0,0,0,0,0,0,0,0,0,0,0,0,0,0,0,0,0,0,0,0,0,0,0,0,0,0,0,0,0,0,0,0,0,0,0,0,0,0,0,0,0.1392,0.1392,0,0.1436,0.1437,0.1437,0.1479,0.148,0.148,0.1481,0.1531,0.1531,0.1532,0,0,0,0,0,0,0,0,0,0,0,0,0,0.1353,0.1353,0.1392,0.1393,0.1393,0.1436,0.1437,0.1437,0.1479,0.148,0.148,0.1481,0.153,0.1531,0.1532,0,0,0,0,0,0,0,0,0,0,0,0,0,0.1379,0.1353,0.1392,0.142,0.1423,0.1436,0.1437,0.1437,0.1479,0.148,0.1481,0.1482,0.153,0.1531,0.1532,0.1519,0,0,0.1536,0.1536,0,0,0,0,0,0,0,0,0.1378,0.138,0.1415,0.1418,0.1422,0.1454,0.1441,0.1465,0.1478,0.1456,0.1481,0.1482,0.1506,0.1509,0.1513,0.1521,0.1523,0.1536,0.1536,0.1537,0.1537,0,0,0,0,0,0,0,0.1376,0.1379,0.1408,0.1416,0.142,0.1434,0.1439,0.1446,0.1474,0.1458,0.1462,0.1469,0.1508,0.1512,0.1514,0.1524,0.1536,0.1537,0.1537,0.1538,0.1616,0.1617,0,0,0,0,0,0,0.1372,0.1377,0.1406,0.1409,0.1404,0.1434,0.1439,0.1442,0.1474,0.148,0.1468,0.147,0.1509,0.1513,0.1516,0.1585,0.1537,0.1538,0.1538,0.1614,0.1616,0.1618,0,0,0,0,0,0,0.1371,0.1374,0.1405,0.1396,0.1401,0.1434,0.1436,0.1442,0.1477,0.1481,0.1488,0.1501,0.151,0.1515,0.1553,0.1584,0.1538,0.1539,0.1613,0.1615,0.1617,0.1668,0,0,0,0,0,0,0.1369,0.1373,0.1389,0.1395,0.1401,0.1432,0.1436,0.1442,0.1479,0.1484,0.1511,0.1515,0.1512,0.1552,0.1554,0.1584,0.154,0.1611,0.1614,0.1616,0.1665,0.1672,0.1678,0,0,0,0,0,0.1368,0.1379,0.1389,0.1394,0.1416,0.1433,0.1438,0.1463,0.148,0.1498,0.1522,0.1516,0.1571,0.1554,0.1556,0.1588,0.1609,0.1613,0.1616,0.1662,0.1671,0.1678,0,0,0,0,0,0,0.1373,0.1384,0.1396,0.1412,0.1432,0.1441,0.1465,0.148,0.1512,0.1528,0.1531,0.1537,0.1582,0.1578,0.1559,0.1619,0.159,0.1594,0.1624,0.1632,0.1639,0.1641,0.1541,0,0,0,0,0,0.1379,0.1393,0.1406,0.1424,0.1436,0.1456,0.1473,0.149,0.1512,0.1529,0.1548,0.1571,0.1591,0.1608,0.1622,0.1652,0.1655,0.1675,0.1682,0.1688,0.1692,0.1728,0.1739,0.1628,0.1628,0.1628,0,0,0.1387,0.1397,0.1407,0.1427,0.1446,0.1465,0.147,0.1504,0.1528,0.1528,0.1579,0.1597,0.1605,0.1643,0.1663,0.1647,0.1721,0.1692,0.1696,0.1698,0.1733,0.1743,0.1753,0.163,0.163,0.163,0,0,0.1399,0.142,0.1434,0.1451,0.1485,0.1495,0.1511,0.1539,0.1566,0.1607,0.1618,0.1656,0.1686,0.17,0.1708,0.176,0.1756,0.177,0.1806,0.1841,0.185,0.1858,0.1875,0.1884,0.1773,0.1773,0.1773,0,0.1414,0.1426,0.1443,0.1461,0.1482,0.1511,0.1532,0.1558,0.1599,0.1627,0.1634,0.1702,0.1711,0.1754,0.1775,0.1775,0.179,0.1773,0.185,0.1858,0.1865,0.188,0.189,0.1776,0.1775,0.1775,0.1775,0,0.1424,0.1449,0.1462,0.1492,0.1517,0.1543,0.1574,0.1614,0.1652,0.1678,0.1745,0.1764,0.1806,0.1816,0.1812,0.1873,0.1865,0.1854,0.1827,0.1879,0.1892,0.1901,0.178,0.1779,0.1778,0.1777,0,0,0.1413,0.1459,0.1468,0.1489,0.1537,0.1554,0.1606,0.1653,0.1697,0.1749,0.1803,0.1849,0.1876,0.1888,0.1896,0.1925,0.1989,0.1919,0.1919,0.1932,0.2064,0.192,0.1915,0.1999,0.2001,0.2002,0.2051,0,0.142,0.1453,0.1479,0.1523,0.1541,0.1589,0.1632,0.1686,0.1737,0.1798,0.1842,0.1897,0.1898,0.193,0.1964,0.1985,0.2016,0.1976,0.2015,0.2016,0.1878,0.1921,0.2008,0.2058,0.206,0.2061,0.2062,0,0.1414,0.144,0.1479,0.1536,0.1552,0.1589,0.1668,0.1712,0.18,0.1845,0.1915,0.195,0.2016,0.2002,0.2078,0.2058,0.2071,0.2078,0.208,0.1932,0.1887,0.1996,0.2078,0.2077,0.2076,0.2075,0.2074,0,0.138,0.1438,0.1471,0.149,0.156,0.1602,0.165,0.1735,0.1783,0.1885,0.1932,0.2012,0.2064,0.2102,0.2132,0.2118,0.2196,0.2174,0.2055,0.2045,0.2138,0.2128,0.2224,0.2224,0.2224,0.2224,0.2224,0,0.1355,0.1386,0.1464,0.1481,0.1534,0.1594,0.1666,0.1727,0.182,0.1873,0.1962,0.2006,0.2096,0.2147,0.2158,0.2132,0.2225,0.2065,0.205,0.2158,0.215,0.2144,0.2134,0.2226,0.2226,0.2225,0.2225,0,0.1304,0.1356,0.14,0.1486,0.1518,0.1561,0.1666,0.1708,0.1813,0.1885,0.1921,0.2031,0.2091,0.2152,0.2212,0.215,0.2145,0.2113,0.2228,0.2218,0.1962,0.1955,0.1975,0.197,0.1966,0.1963,0.196,0,0.1274,0.1294,0.1394,0.1421,0.1466,0.154,0.1582,0.1694,0.1732,0.1875,0.1889,0.1998,0.2054,0.2025,0.2099,0.2105,0.2081,0.2058,0.2001,0.1955,0.1939,0.1938,0.1935,0.1954,0.1953,0.1952,0.1951,0,0.1217,0.1271,0.1308,0.1365,0.1417,0.146,0.1531,0.1548,0.1667,0.1784,0.1812,0.1839,0.19,0.1936,0.196,0.196,0.2058,0.2016,0.2024,0.197,0.193,0.1917,0.192,0.1937,0.1939,0.194,0.1941,0,0.1181,0.1193,0.125,0.1287,0.1344,0.1346,0.1402,0.1439,0.1494,0.1646,0.1654,0.1767,0.1881,0.1861,0.1882,0.1871,0.1836,0.176,0.178,0.1796,0.1712,0.1634,0.154,0,0,0,0,0,0.1133,0.1129,0.1159,0.1181,0.1229,0.1262,0.1343,0.1399,0.1519,0.1494,0.1568,0.1614,0.1642,0.1703,0.1656,0.1797,0.1842,0.1731,0.1764,0.1861,0.1877,0.1794,0,0,0,0,0,0,0.1096,0.1123,0.1124,0.1081,0.1078,0.1111,0.116,0.1244,0.1237,0.1373,0.1402,0.1506,0.1566,0.1656,0.1624,0.164,0.1622,0.1808,0.1803,0.1852,0.1867,0.1879,0.1799,0,0,0,0,0]},{"header":{"parameterUnit":"m.s-1","parameterCategory":2,"la1":30.2991,"la2":30.254,"lo1":-89.0895,"lo2":-89.0444,"dy":0.0017,"dx":0.0017,"nx":28,"ny":28,"refTime":"2025-08-04T21:00:00:Z","depth":"4","parameterNumber":3,"parameterNumberName":"V-component_of_CURRENTS"},"data":[0,0,0,0,0,0,0,0,0,0,0,0,0,0,0,0,0,0,0,0,0,0,0,0,0,0,0,0,0,0,0,0,0,0,0,0,0,0,0,0,0,0,0,0,0,0,0,0,0,0,0,0,0,0,0,0,0,0,0.0142,0.0142,0,0.0132,0.0132,0.0132,0.0122,0.0122,0.0122,0.0122,0.0107,0.0106,0.0106,0,0,0,0,0,0,0,0,0,0,0,0,0,0.0133,0.0133,0.0142,0.0142,0.0142,0.0132,0.0132,0.0132,0.0123,0.0122,0.0122,0.0122,0.0107,0.0106,0.0106,0,0,0,0,0,0,0,0,0,0,0,0,0,0.0131,0.0133,0.0142,0.0136,0.0135,0.0132,0.0132,0.0132,0.0123,0.0122,0.0122,0.0122,0.0107,0.0107,0.0106,0.0106,0,0,0.0105,0.0104,0,0,0,0,0,0,0,0,0.0132,0.0132,0.0137,0.0136,0.0136,0.0128,0.0123,0.0123,0.0123,0.0127,0.0122,0.0122,0.0114,0.0113,0.0111,0.0106,0.0105,0.0105,0.0104,0.0104,0.0104,0,0,0,0,0,0,0,0.0132,0.0132,0.0138,0.0137,0.0136,0.0127,0.0127,0.0123,0.0121,0.0127,0.0126,0.0125,0.0113,0.0112,0.0111,0.0105,0.0105,0.0104,0.0104,0.0104,0.0105,0.0105,0,0,0,0,0,0,0.0134,0.0132,0.0138,0.0138,0.0133,0.0127,0.0127,0.0131,0.0121,0.012,0.0125,0.0125,0.0112,0.0111,0.011,0.0122,0.0104,0.0104,0.0103,0.0105,0.0105,0.0106,0,0,0,0,0,0,0.0134,0.0135,0.0139,0.0134,0.0134,0.0128,0.0132,0.0131,0.0131,0.012,0.0119,0.0127,0.0112,0.0111,0.0112,0.0121,0.0103,0.0103,0.0104,0.0105,0.0105,0.0138,0,0,0,0,0,0,0.0134,0.0135,0.0139,0.0135,0.0135,0.0143,0.0132,0.0131,0.013,0.013,0.0121,0.012,0.0112,0.0113,0.0112,0.012,0.0103,0.0104,0.0105,0.0105,0.0136,0.0139,0.0142,0,0,0,0,0,0.0134,0.0141,0.0139,0.014,0.014,0.0143,0.0142,0.0137,0.0131,0.0135,0.0129,0.012,0.0116,0.0113,0.0111,0.0119,0.0104,0.0104,0.0105,0.0135,0.0139,0.0142,0,0,0,0,0,0,0.0136,0.0141,0.0138,0.0146,0.0146,0.0142,0.0144,0.0139,0.0138,0.0137,0.0125,0.0123,0.0127,0.0119,0.0116,0.0121,0.0108,0.0108,0.0131,0.0134,0.0137,0.0146,0.0102,0,0,0,0,0,0.0139,0.0148,0.0147,0.0153,0.0155,0.015,0.015,0.0147,0.0145,0.0144,0.0138,0.0132,0.0128,0.0128,0.0123,0.0128,0.011,0.0131,0.0134,0.0136,0.0143,0.0122,0.0123,0.0108,0.0108,0.0108,0,0,0.014,0.0144,0.0148,0.0155,0.0154,0.0166,0.015,0.0154,0.0163,0.0142,0.0153,0.0141,0.0131,0.0136,0.0137,0.0131,0.013,0.0137,0.0139,0.0145,0.0123,0.0124,0.0125,0.0108,0.0108,0.0108,0,0,0.0152,0.0153,0.0166,0.0172,0.0176,0.0176,0.0179,0.0178,0.0177,0.0184,0.0171,0.0166,0.0162,0.0157,0.0154,0.0169,0.0144,0.0166,0.019,0.0169,0.017,0.0171,0.0144,0.0142,0.0169,0.0169,0.0169,0,0.0153,0.0173,0.017,0.0186,0.0194,0.0184,0.0202,0.0201,0.0201,0.0203,0.0192,0.0185,0.0174,0.018,0.0184,0.0176,0.0157,0.0179,0.0173,0.0173,0.0174,0.0146,0.0143,0.017,0.017,0.017,0.017,0,0.0178,0.0194,0.0203,0.0224,0.0231,0.0245,0.0246,0.025,0.0245,0.0244,0.0245,0.0226,0.0224,0.0216,0.0205,0.0205,0.0188,0.0177,0.0165,0.0177,0.0147,0.0144,0.0173,0.0172,0.0172,0.0171,0,0,0.0183,0.0216,0.022,0.0239,0.0255,0.0265,0.028,0.0293,0.0307,0.0294,0.0305,0.0291,0.0276,0.0271,0.0252,0.0233,0.0212,0.0209,0.0207,0.0183,0.0161,0.0137,0.0131,0.02,0.02,0.0199,0.0137,0,0.0206,0.0247,0.0256,0.0295,0.0318,0.0317,0.0337,0.0345,0.0343,0.035,0.0324,0.0329,0.0299,0.0297,0.0274,0.0232,0.0207,0.023,0.0152,0.015,0.0128,0.0128,0.0199,0.0134,0.0133,0.0133,0.0132,0,0.0231,0.0258,0.0302,0.0342,0.0351,0.0372,0.04,0.0418,0.0421,0.0418,0.0408,0.0386,0.0363,0.0332,0.0264,0.0279,0.0225,0.0184,0.0181,0.0147,0.012,0.012,0.0126,0.0127,0.0127,0.0127,0.0128,0,0.0245,0.029,0.0329,0.0343,0.0384,0.0402,0.0424,0.044,0.0465,0.0462,0.0472,0.0434,0.0422,0.0351,0.0265,0.0265,0.0179,0.0167,0.0091,0.0088,0.0114,0.0114,0.0113,0.0113,0.0113,0.0113,0.0113,0,0.0269,0.0301,0.0341,0.0364,0.0414,0.0432,0.0482,0.0492,0.0519,0.0556,0.0514,0.0519,0.0426,0.0365,0.0278,0.0174,0.0186,0.0095,0.0073,0.0128,0.013,0.0111,0.0112,0.0111,0.0111,0.0112,0.0112,0,0.0281,0.0307,0.0356,0.0404,0.0424,0.0461,0.0528,0.0566,0.0582,0.0625,0.0627,0.0585,0.0505,0.0397,0.0278,0.0198,0.0095,0.0052,0.0116,0.0098,0.0014,0.0018,-0.0033,-0.0034,-0.0035,-0.0036,-0.0037,0,0.0291,0.0317,0.0383,0.0419,0.0444,0.0505,0.0554,0.0595,0.0638,0.0665,0.0685,0.0622,0.0576,0.0393,0.0271,0.0095,0.0068,0.0006,0.0013,0.0017,0.0,0.0005,0.001,-0.0039,-0.0039,-0.0039,-0.004,0,0.0308,0.0331,0.0371,0.0445,0.0502,0.0573,0.064,0.0675,0.0727,0.074,0.0732,0.0639,0.0543,0.0395,0.0253,0.0128,0.0043,-0.0006,-0.0004,0.0001,0.0009,-0.0005,0.0001,-0.0044,-0.0043,-0.0043,-0.0042,0,0.0318,0.0346,0.0401,0.0468,0.0543,0.0618,0.0655,0.0707,0.0749,0.0774,0.0767,0.0665,0.0608,0.0412,0.0284,0.0154,0.012,0.0072,0.0069,0.0072,0.0116,0.0143,0.0112,0,0,0,0,0,0.0327,0.0361,0.0421,0.0496,0.0574,0.0622,0.0706,0.074,0.0784,0.0785,0.078,0.069,0.0505,0.0425,0.0292,0.0252,0.0089,0.0088,0.003,-0.0065,-0.0061,-0.0029,0,0,0,0,0,0,0.0333,0.0385,0.0417,0.0512,0.0568,0.066,0.0717,0.075,0.0751,0.0769,0.0675,0.064,0.046,0.058,0.0284,0.0245,0.0185,0.0007,0.0004,-0.0068,-0.0063,-0.006,-0.0026,0,0,0,0,0]}]]